Location: Lango�lan
(48.1202°N, 3.2340°W)
Time: 16:22:36
(UTC+00:00)

Cosmos 1954 Rocket - Pass Details

Date: 23 October 2019
Orbit: 753 x 781 km, 74.1° (Epoch: 14 November)

Event Time Altitude Azimuth Distance (km) Brightness Sun altitude
Exits shadow 05:02:59 21° 226° (SW) 1,667 5.3 -17.4°
Maximum altitude 05:06:21 54° 297° (WNW) 920 4.1 -16.9°
Drops below altitude 10° 05:11:27 10° 15° (NNE) 2,297 6.7 -16.0°
Sets 05:13:53 0° 20° (NNE) 3,223 7.5 -15.6°
